Showing default

GLOBALSTAR M087, 52888

Orbit data source: Space-Track

GLOBALSTAR M087, 52888 is a payload satellite owned by Globalstar (US) in LEO that was launched on Sun, 19 Jun 2022 UTC via an FALCON 9 launch vehicle from the Air Force Eastern Test Range (AFETR). Payloads include a variety of satellites, spacecraft, and rockets equipped with specific instruments for various scientific and technological missions. These include communications satellites like Starlink; space stations such as the ISS; scientific satellites like the Hubble; Earth observation satellites from companies like Planet Labs, Umbra, and HawkEye 360; GPS; miniature CubeSats for education and research; and military/defense satellites.

Loading next visibility...
GLOBALSTAR M087 details
Identifier
52888, 2022-064A
Orbit
LEO
Last TLE update8 hours ago
Origin
Flag of USGlobalstar (US)
ManufacturerThales Alenia
MissionOperational Commercial Communications
Bus & MotorPRISMA?, LS-400 AOCS?
Mass715 kg wet, ~500 kg dry
Launch date (UTC)
2022-06-19 (3 years ago)
Launch vehicle
FALCON 9
Launch site
Air Force Eastern Test Range (AFETR)
Object type
Payload
Rocket body
Debris
Shape & HBRBox + 2 Pan, 12 m
Radar Cross Section28.800 m², Large (>1 m²)

Expand to show TLE details & history

TLE from 8 hours ago
0 GLOBALSTAR M087
1 52888U 22064A   25025.53088491 -.00000094  00000-0  53249-4 0  9998
2 52888  51.9771 168.2433 0000857 105.3028 254.7934 12.62233183127026
Epoch: 2025-01-25T12:44Z
Definitive object data (Epoch: 2025-01-25T12:44:28.456Z)
Latitude0.00006°
Longitude-147.95359°
Altitude1,414.595 km
Speed7.154 km/s
True Right ascension11h 12m 58s
True Declination0° 00' 00"
Sunlit
Object was in full shadow at TLE epoch
Visualization TLE readout
Latitude41.79425°
Longitude-104.8873°
Altitude1,417.223 km
Speed7.157 km/s
Apparent Right ascension12h 14m 14s
Apparent Declination6° 48' 34"
Sunlit
Object is in daylight
Visualization observer readout
Local Sidereal Time21:59:55
Azimuth318.548° NNW
Elevation-33.946°
Doppler factor1
Orbital elements
Apogee altitude1,414.804 km
Perigee altitude1,413.468 km
Semi-major axis7,792.273 km
Eccentricity0.0000857
Inclination51.9771°
RAAN168.2433°
Arg. of periapsis105.3028°
True anomaly254.78392°
Mean anomaly254.7934°
Eccentric anomaly254.78866°
Mean motion3.15535 °/min
BSTAR0.000053249
Orbital period114.09 mins
Loading maneuver chart data...
Loading historical data...
Loading historical data...
Loading historical data...
Loading historical data...
Loading historical data...
Loading historical data...
Loading historical data...

GLOBALSTAR M087 Visibility forecast

Observer location: undefined°, undefined

Span
Click to sort rows by Start time (UTC) header in descending order
Start Az.
Max El. time (UTC)
Max El. Az.
Max El.
End time (UTC)
End Az.
13 mins2025-01-25 20:58:47.493Z287.346° WNW2025-01-25 21:04:47.493Z241.341° WSW23.791°2025-01-25 21:11:47.493Z185.608° SSW
8 mins2025-01-26 09:46:47.493Z144.517° SSE2025-01-26 09:49:47.493Z121.476° SE16.293°2025-01-26 09:54:47.493Z84.644° E
15 mins2025-01-26 11:41:47.493Z214.721° SW2025-01-26 11:48:47.493Z126.606° SE43.036°2025-01-26 11:56:47.493Z55.716° ENE
15 mins2025-01-26 13:41:47.493Z267.175° W2025-01-26 13:48:47.493Z338.277° N37.35°2025-01-26 13:56:47.493Z51.106° ENE
14 mins2025-01-26 15:43:47.493Z302.71° NW2025-01-26 15:50:47.493Z10.188° NNE31.127°2025-01-26 15:57:47.493Z67.722° E
15 mins2025-01-26 17:44:47.493Z312.558° NW2025-01-26 17:51:47.493Z33.013° NE40.73°2025-01-26 17:59:47.493Z106.854° ESE
14 mins2025-01-26 19:44:47.493Z296.863° NW2025-01-26 19:51:47.493Z219.47° SW37.849°2025-01-26 19:58:47.493Z157.972° S
|